Ten-Koh (43677 NORAD) Tracking and Keplerian Element Data

This shows tracking and keplerian element data for the satellite.

Feedback or suggestion? Click here.




ElementValue
Catalog43677
NameTen-Koh
Epoch Orbit2540
Epoch Day107.84610412
Epoch Year2019
RAAN222.0106
Inclination97.8422
Eccentricity0.0017326
Argument of Perigee123.288
Mean Anonmoly236.9997
Mean Motion14.90144622
Decay Rate-4.32E-06
L11 43677U 18084G 19107.84610412 -.00000432 00000-0 -38707-4 0 9992
L22 43677 097.8422 222.0106 0017326 123.2880 236.9997 14.90144622025406

Live tracking and technical data element details for Ten-Koh (NORAD 43677). Ten-Koh can be tracked NOW for your location showing map with azimuth and elevation plus other details from your city location.

Track the satellite on the map from your city or location and see movement details for azimuth, elevation, latitude, longitude, range, height, and movement on the map or in text.







IsCatalogInMostPopularTable: catalog: 43677, numindb: 102
Update: records affected: 1



GetName: 43677 Ten-Koh

Hit Count: updated at: Sat, 20 Apr 2019 20:49:33 GMT